Wind_Speed
24 25 24 22 23 22 23 22 25 26 29 32 35 39 35 34 35 36 35 35 36 36 36 36 36 39 40 41 41 40 39 39 41 44 47 48 47 47 49 49 50 51 50 50
28 27 25 26 26 28 29 28 27 26 32 35 36 38 36 38 37 39 39 33 35 35 34 36 39 41 43 43 43 41 39 39 41 45 48 51 52 53 53 51 52 53 53 53
30 26 29 29 30 31 32 34 33 35 38 40 39 38 37 38 36 34 28 33 33 37 39 41 40 40 42 43 40 37 33 33 34 38 43 48 51 50 48 48 48 49 51 54
27 28 30 35 37 38 39 36 37 38 38 40 40 41 40 39 39 32 26 29 28 31 34 38 38 38 40 39 37 35 37 39 41 42 47 51 53 54 56 56 53 52 53 53
28 29 29 30 36 41 38 34 34 38 39 36 40 42 39 42 37 32 36 37 36 38 38 40 41 42 40 39 35 30 34 39 40 43 45 47 49 52 54 55 57 57 54 56
29 32 34 34 34 34 36 34 35 36 39 40 38 46 45 38 41 41 40 38 36 35 37 41 41 38 35 31 30 30 34 39 44 48 49 49 50 54 56 57 56 56 58 59
27 32 32 36 40 40 41 40 38 39 42 42 38 37 40 27 38 36 34 34 35 31 34 38 40 40 37 33 35 38 40 44 47 49 49 50 54 56 58 59 60 60 60 61
40 31 30 36 37 39 40 40 38 39 38 37 37 40 38 30 35 32 36 35 35 33 34 39 41 45 45 43 44 45 46 49 49 47 47 52 54 55 53 57 60 62 64 63
15 28 43 39 38 38 38 38 39 41 40 42 40 37 32 32 33 36 34 37 37 33 36 39 42 45 50 54 55 55 54 52 51 50 48 52 55 59 58 55 57 62 65 65
13 14 15 21 39 43 40 41 42 44 44 43 39 33 31 32 34 38 42 41 46 46 43 46 50 54 57 60 62 59 60 59 55 54 52 50 50 60 61 60 60 61 65 67
13 9 9 15 19 23 35 32 35 35 41 39 31 28 27 28 36 33 34 44 48 48 49 52 56 58 59 59 61 60 58 57 57 58 56 54 50 53 54 54 53 52 56 55
18 16 15 13 19 21 27 29 33 35 36 38 40 32 27 33 32 37 37 41 45 50 53 53 53 55 60 65 64 63 62 61 61 58 56 57 57 55 53 55 58 58 60 59
21 22 20 17 22 22 24 27 27 33 37 40 40 40 32 32 38 43 41 42 45 49 50 53 56 59 60 61 63 63 62 62 57 58 57 59 59 59 57 53 56 55 58 62
24 24 22 21 24 26 27 28 31 32 35 38 40 40 41 41 42 42 44 46 45 43 46 49 52 54 58 58 61 63 61 58 59 58 61 62 62 61 59 58 55 53 52 61
25 25 26 25 23 26 28 29 31 34 33 36 32 37 39 43 43 45 45 42 44 48 51 50 51 54 57 58 57 55 56 57 57 60 61 59 61 62 65 63 61 61 63 58
24 25 27 26 27 27 30 27 29 33 36 38 41 42 46 47 47 47 48 46 49 53 50 52 54 54 52 52 53 55 53 56 59 56 62 65 64 61 59 59 59 62 60 54
25 26 27 26 30 31 28 30 31 31 32 34 39 43 44 49 50 49 52 54 53 51 50 48 47 47 48 52 49 51 51 50 50 56 59 61 62 64 64 62 59 60 58 51
23 24 25 28 29 27 24 24 24 27 30 31 33 35 36 36 36 37 43 46 49 49 47 45 46 47 45 47 46 46 47 49 53 57 60 60 59 58 58 59 59 55 54 52
22 23 25 26 27 26 24 21 22 22 24 24 26 28 32 35 36 36 39 44 45 44 43 45 43 41 39 39 41 44 46 51 56 59 60 62 61 56 54 56 51 49 48 43
21 22 25 26 25 21 18 19 18 21 21 20 25 30 33 34 33 32 40 42 40 39 37 38 40 40 41 40 43 43 45 49 55 59 63 66 62 56 50 48 48 46 42 36
21 22 22 24 25 21 18 17 19 21 23 26 28 32 33 35 34 34 32 31 34 37 38 37 38 34 34 36 37 39 45 52 57 62 65 64 58 52 43 46 43 42 38 35
20 21 19 20 20 19 18 17 20 22 23 25 27 28 29 30 28 24 26 29 28 26 28 27 24 26 31 33 36 42 50 55 57 61 62 59 55 45 41 40 44 39 35 32
19 20 14 17 18 20 20 23 22 25 26 27 29 31 32 23 24 27 27 25 22 19 21 20 22 26 31 35 41 48 52 55 57 58 56 52 44 41 40 38 34 36 31 29
22 21 18 21 19 19 25 23 27 29 31 30 30 28 22 24 26 23 20 19 15 16 16 20 23 27 31 35 42 45 51 53 53 53 52 45 38 36 32 31 31 28 29 27
22 21 22 22 28 31 34 30 32 31 29 25 23 19 23 22 18 14 15 11 11 14 17 22 24 28 33 37 41 46 51 50 53 48 42 36 29 23 23 21 28 32 27 28
21 20 22 25 28 30 30 31 30 29 25 21 18 22 25 17 14 12 9 8 11 15 18 22 25 25 33 35 38 45 45 50 47 40 33 25 19 15 12 12 18 26 26 28
Wind_Direction
201 200 200 203 202 209 218 216 216 214 216 224 225 233 234 236 242 248 252 248 251 253 253 252 252 255 256 257 259 262 263 264 268 271 270 269 269 269 269 269 268 266 264 262
215 212 211 210 215 214 219 220 226 224 226 233 234 239 241 241 240 243 244 250 249 254 256 258 259 262 264 264 264 265 265 266 265 266 268 268 269 268 268 267 269 269 268 267
227 228 219 219 220 221 228 228 224 226 223 234 236 243 246 248 246 250 253 254 260 263 265 262 257 253 253 257 261 262 261 254 251 256 260 263 268 269 267 265 265 266 268 268
224 226 233 231 227 225 226 229 233 237 235 235 239 243 245 251 255 262 279 280 270 266 261 260 258 260 261 263 267 269 267 262 257 254 256 259 262 268 271 272 267 263 262 265
217 221 230 235 233 229 227 225 228 234 239 236 232 247 239 249 262 276 271 258 253 257 258 261 265 266 270 272 277 279 274 274 272 267 263 262 264 264 263 265 269 271 266 261
231 233 226 225 234 243 245 239 237 239 241 237 232 240 256 259 255 250 250 259 265 272 272 268 269 271 273 279 274 272 275 276 274 273 274 274 272 272 270 269 267 267 268 269
226 234 238 237 236 237 241 246 246 246 248 254 251 247 248 233 248 254 258 261 260 255 260 271 276 280 282 280 281 280 272 266 268 270 272 274 270 267 268 268 269 268 264 264
234 225 227 235 238 240 243 247 248 250 250 250 249 249 251 243 252 254 257 255 259 258 258 264 266 269 276 281 280 279 272 268 268 274 276 276 275 272 268 268 267 266 266 264
228 232 228 233 241 242 240 245 251 257 259 256 256 257 261 254 255 258 257 265 260 264 268 265 263 270 277 280 281 279 276 278 282 282 286 285 282 279 276 272 269 268 266 264
237 232 246 247 238 243 246 242 244 253 259 264 265 264 259 254 249 249 254 251 252 253 256 259 264 270 275 275 276 276 278 282 285 290 287 284 279 276 276 275 272 269 265 264
264 249 235 240 245 237 246 248 251 253 257 261 265 263 263 253 252 257 260 256 262 264 264 264 263 263 264 267 272 277 282 288 291 285 280 277 276 277 277 274 270 270 268 265
269 265 255 254 249 252 251 250 245 248 254 260 266 263 263 261 256 258 261 256 251 255 259 261 265 267 270 274 279 281 284 287 283 286 287 285 284 283 281 282 281 276 267 263
261 254 252 253 264 262 258 261 256 252 253 255 262 266 263 262 261 264 256 254 256 258 260 263 266 269 273 275 277 281 283 283 288 287 288 290 288 286 283 281 283 279 273 269
265 264 263 262 262 269 267 263 262 256 252 255 257 260 261 263 265 262 262 267 268 267 272 275 277 278 278 278 278 276 280 285 286 288 289 291 291 290 288 290 286 278 272 268
261 262 263 267 269 267 266 260 258 262 258 255 259 259 263 262 261 261 263 269 270 278 280 276 272 271 273 275 281 284 283 285 289 289 289 291 289 289 289 287 286 282 280 274
258 258 262 271 277 275 272 274 264 256 254 258 258 256 257 263 265 269 275 274 273 274 271 272 275 281 284 282 278 281 283 286 287 295 297 299 296 289 287 280 278 277 281 279
264 262 267 276 279 279 277 267 266 261 261 260 260 263 266 266 270 273 273 275 274 276 278 282 283 281 278 281 284 287 284 285 292 293 295 293 290 289 289 282 279 275 279 280
266 266 269 279 283 282 273 268 264 263 264 266 266 268 270 272 271 270 270 274 276 282 285 284 282 283 286 288 286 283 289 293 292 296 296 296 293 289 286 280 278 275 273 275
265 269 278 283 283 282 280 277 275 268 262 263 264 265 265 265 263 267 274 274 276 278 279 281 282 286 288 286 294 299 301 298 294 293 297 297 293 289 285 282 275 270 270 269
268 274 280 286 283 281 276 276 272 262 263 263 262 269 271 274 272 268 270 277 282 285 287 291 296 296 299 297 303 305 299 298 299 299 297 295 290 285 279 283 274 262 260 262
264 273 279 283 281 280 277 262 253 253 263 267 269 268 271 273 274 269 273 272 276 279 283 284 290 292 297 299 303 311 309 307 304 299 297 294 288 290 283 277 274 254 256 255
267 273 281 284 280 277 268 263 265 272 278 275 275 276 278 281 278 274 273 275 274 279 284 293 302 302 306 307 311 314 315 311 305 302 301 302 300 290 281 273 262 248 253 246
265 270 264 276 276 285 272 265 271 278 279 280 283 287 288 281 276 283 282 279 279 284 299 302 307 309 309 309 311 313 314 311 309 309 308 304 297 288 270 283 250 243 248 240
263 267 254 246 264 280 276 280 284 291 292 291 289 285 274 282 287 284 275 276 280 299 301 312 315 316 314 320 321 319 318 322 325 319 313 308 298 286 275 278 232 233 236 227
256 259 262 259 255 259 268 278 284 290 288 287 286 280 288 291 283 279 278 282 286 308 307 313 314 319 324 323 325 327 329 333 334 332 326 317 311 296 276 257 220 226 226 217
258 258 257 257 260 263 271 279 286 283 284 289 281 291 298 298 296 293 295 284 298 307 308 324 323 324 329 334 334 337 339 340 339 337 336 329 315 308 276 251 228 217 218 212
Height
5737 5740 5745 5751 5755 5760 5763 5768 5771 5774 5774 5778 5781 5782 5787 5790 5793 5794 5797 5799 5801 5804 5806 5808 5810 5811 5812 5814 5816 5816 5817 5818 5818 5816 5816 5815 5816 5817 5815 5815 5817 5817 5820 5822
5735 5739 5744 5746 5750 5753 5756 5761 5766 5770 5769 5771 5772 5775 5778 5781 5784 5785 5787 5791 5791 5792 5796 5799 5800 5800 5801 5802 5805 5808 5811 5811 5809 5806 5804 5804 5805 5806 5806 5806 5804 5803 5802 5802
5733 5739 5739 5741 5744 5747 5750 5753 5756 5759 5762 5763 5766 5769 5770 5772 5775 5776 5780 5782 5785 5786 5787 5788 5790 5790 5791 5791 5794 5798 5801 5802 5801 5797 5795 5792 5791 5792 5794 5795 5795 5794 5791 5789
5728 5731 5735 5737 5738 5740 5742 5746 5749 5752 5757 5759 5760 5761 5763 5765 5766 5772 5776 5776 5775 5775 5776 5775 5777 5778 5780 5783 5786 5788 5787 5788 5788 5789 5787 5783 5783 5782 5780 5780 5782 5783 5783 5780
5723 5723 5728 5731 5733 5732 5736 5741 5743 5746 5748 5753 5755 5754 5759 5758 5763 5768 5768 5766 5766 5766 5767 5767 5767 5769 5772 5773 5774 5774 5772 5772 5772 5773 5774 5774 5772 5770 5769 5768 5766 5767 5769 5769
5718 5719 5719 5722 5726 5730 5733 5736 5738 5740 5741 5744 5749 5749 5749 5758 5759 5754 5754 5757 5760 5761 5760 5760 5760 5761 5762 5764 5763 5763 5763 5762 5760 5758 5758 5759 5758 5754 5753 5752 5753 5755 5752 5750
5711 5712 5716 5717 5719 5721 5723 5726 5730 5732 5732 5735 5740 5743 5742 5749 5744 5747 5749 5750 5750 5750 5749 5748 5749 5750 5752 5752 5752 5753 5752 5749 5747 5748 5747 5745 5742 5741 5740 5738 5736 5734 5734 5734
5702 5707 5709 5708 5711 5715 5718 5719 5722 5721 5725 5728 5731 5731 5735 5740 5738 5740 5738 5739 5737 5740 5741 5741 5741 5740 5739 5742 5743 5741 5739 5737 5736 5736 5734 5730 5727 5725 5727 5723 5719 5717 5716 5716
5698 5700 5700 5701 5705 5710 5711 5713 5714 5714 5716 5717 5722 5726 5730 5730 5730 5730 5732 5729 5730 5730 5730 5730 5730 5730 5730 5729 5728 5725 5722 5721 5721 5720 5719 5714 5711 5706 5705 5705 5702 5700 5697 5696
5694 5697 5696 5697 5700 5700 5703 5706 5706 5705 5706 5708 5711 5716 5721 5721 5722 5721 5720 5721 5722 5723 5722 5723 5722 5721 5719 5716 5713 5710 5708 5706 5706 5706 5704 5701 5696 5688 5685 5685 5683 5681 5678 5677
5688 5692 5694 5693 5693 5694 5692 5695 5697 5698 5698 5698 5702 5707 5712 5712 5708 5711 5713 5712 5710 5709 5711 5711 5708 5706 5704 5702 5700 5699 5697 5696 5693 5689 5685 5682 5679 5673 5669 5667 5665 5662 5658 5656
5682 5683 5685 5687 5685 5686 5685 5686 5688 5688 5690 5691 5691 5697 5703 5699 5701 5703 5703 5701 5701 5699 5699 5699 5697 5695 5693 5689 5687 5685 5682 5678 5674 5670 5666 5662 5658 5656 5652 5649 5646 5644 5642 5638
5678 5679 5681 5682 5680 5680 5679 5678 5681 5682 5682 5682 5683 5683 5691 5695 5691 5688 5690 5690 5689 5688 5689 5688 5686 5684 5683 5679 5674 5670 5665 5660 5657 5653 5650 5645 5640 5636 5633 5631 5629 5625 5620 5619
5670 5671 5673 5675 5674 5673 5673 5672 5671 5672 5672 5672 5674 5676 5678 5678 5678 5678 5677 5678 5680 5681 5680 5677 5674 5671 5667 5663 5658 5653 5650 5647 5642 5638 5632 5627 5621 5616 5613 5609 5606 5604 5601 5598
5663 5664 5664 5666 5667 5665 5663 5664 5663 5662 5664 5663 5668 5666 5668 5664 5664 5665 5667 5669 5669 5666 5663 5660 5657 5652 5649 5646 5644 5641 5636 5630 5626 5621 5616 5611 5605 5598 5592 5588 5583 5581 5578 5577
5655 5657 5657 5658 5657 5657 5655 5656 5655 5654 5654 5653 5654 5657 5653 5651 5653 5656 5655 5656 5654 5652 5649 5645 5642 5640 5638 5634 5629 5626 5622 5617 5610 5602 5595 5588 5583 5581 5576 5570 5566 5561 5559 5557
5647 5648 5649 5651 5648 5647 5649 5645 5645 5645 5645 5647 5646 5646 5648 5647 5647 5647 5644 5640 5637 5636 5634 5634 5631 5627 5624 5620 5616 5611 5605 5600 5594 5588 5582 5574 5567 5560 5554 5550 5547 5542 5539 5540
5639 5640 5641 5641 5640 5638 5637 5637 5638 5638 5637 5637 5637 5637 5637 5637 5636 5633 5630 5629 5627 5625 5623 5620 5616 5614 5611 5608 5603 5596 5591 5584 5577 5570 5562 5555 5547 5541 5535 5529 5527 5525 5523 5523
5631 5632 5632 5632 5632 5631 5629 5629 5628 5628 5630 5630 5629 5628 5626 5625 5625 5626 5623 5618 5616 5614 5612 5608 5605 5603 5599 5594 5587 5582 5576 5568 5561 5553 5546 5536 5526 5520 5515 5511 5508 5507 5507 5508
5624 5625 5625 5624 5623 5624 5624 5622 5622 5621 5621 5622 5621 5620 5618 5617 5616 5619 5612 5609 5607 5603 5599 5595 5594 5591 5584 5580 5574 5570 5564 5555 5546 5537 5525 5515 5505 5498 5493 5491 5490 5490 5492 5494
5617 5617 5618 5617 5616 5618 5617 5616 5615 5616 5619 5615 5614 5612 5611 5609 5606 5605 5605 5602 5598 5594 5592 5589 5586 5582 5575 5571 5566 5558 5551 5542 5531 5519 5506 5494 5484 5478 5474 5472 5470 5474 5477 5481
5610 5611 5612 5610 5610 5611 5610 5611 5610 5610 5608 5608 5606 5604 5602 5600 5598 5596 5594 5591 5589 5588 5585 5581 5578 5573 5567 5560 5554 5548 5539 5527 5515 5500 5486 5475 5465 5459 5455 5453 5453 5458 5464 5469
5604 5605 5606 5605 5604 5604 5604 5603 5603 5602 5602 5600 5599 5596 5593 5591 5590 5588 5585 5582 5582 5580 5577 5574 5571 5566 5559 5554 5547 5538 5526 5513 5497 5481 5467 5455 5447 5441 5438 5437 5438 5445 5451 5458
5597 5597 5598 5599 5599 5597 5596 5597 5596 5595 5594 5591 5589 5587 5585 5585 5581 5579 5578 5577 5576 5573 5571 5569 5565 5560 5555 5547 5538 5526 5513 5497 5481 5465 5450 5438 5431 5426 5424 5423 5425 5434 5441 5449
5591 5591 5591 5592 5593 5592 5591 5593 5592 5590 5587 5585 5583 5581 5578 5576 5574 5573 5572 5571 5571 5568 5566 5563 5559 5554 5547 5539 5529 5516 5501 5485 5468 5451 5437 5426 5419 5413 5412 5412 5417 5425 5433 5441
5583 5584 5585 5585 5585 5585 5587 5587 5585 5581 5580 5578 5577 5575 5571 5569 5568 5567 5566 5567 5565 5564 5562 5558 5553 5548 5541 5532 5520 5508 5492 5476 5459 5444 5431 5421 5414 5411 5409 5409 5412 5418 5427 5434